STAZIONE METEO DI BARCELLONA P.G. CENTRO
Dati campionati ogni minuto da Consolle Davis Vantage Pro 2
ed inviati alla rete mediante server Anemos WDS5 wview



Barcellona P.G. Centro more information Barcellona P.G. Centro


Golfo di Patti more information Golfo di Patti


Thunder radar more information blitzortung!


Rain radar  rain snow radar


altri nostri siti meteo:

Rischio IncendiRischio Incendi

Rete NOAA MADIS

Italia Meteo Network

PomeziameteoSito web di stazione meteo amica



Non è richiesta alcuna attenzione speciale.    Non sono presenti avvisi meteorologici di particolare rilevanza

Select another period ( hide this area )

Unità Periodo Custom range Directly to
Metrico Inglese Entrambi
Quotidiano Settimanale mensile Annuale
use both date-selectors for a custom range
previous Day
With this date

WeatherUnderground graphs for this period ( click here )


Quotidiano Riepilogo per Domenica 08 Dicembre 2019
Tempo Temp. ( °C ) Dew pt. ( °C ) Vento ( km/h ) da Raffica ( km/h ) Pressione ( hPa ) Humid.( % ) Rainrate ( cm ) solare ( W/m2 )
Max19,2 11,9 12,9 SE ( 271/572 ) 16,1 1022,6 86 - 452
Media14,5 10,0 3,2 SE #58/176 8,4 1021,8 75 - 356 #73/176
Min12,0 8,6 -   0,0 1020,9 55 -  
Quotidiano Tabular details for Domenica 08 Dicembre 2019
Tempo Temp. ( °C ) Dew pt. ( °C ) Vento ( km/h ) da Raffica ( km/h ) Pressione ( hPa ) Humid.( % ) Rainrate ( cm ) solare ( W/m2 )
00:00 12,5 8,6 6,4 SE 9,7 1022,2 77 - -
00:05 12,4 8,7 4,8 SE 16,1 1022,2 78 - -
00:10 12,4 8,6 1,6 SE 11,3 1022,2 78 - -
00:15 12,4 8,6 6,4 SE 12,9 1022,2 78 - -
00:20 12,4 8,6   calma 12,9 1022,2 78 - -
00:25 12,3 8,6 6,4 SE 4,8 1022,2 78 - -
00:30 12,3 8,6 6,4 SE 9,7 1022,2 78 - -
00:35 12,3 8,8 6,4 SE 12,9 1022,2 79 - -
00:40 12,3 8,8 12,9 SE 12,9 1022,2 79 - -
00:45 12,3 8,7 3,2 SE 11,3 1022,2 79 - -
00:50 12,3 8,7   calma 8,0 1021,9 79 - -
00:55 12,2 8,8 6,4 SE 8,0 1021,9 80 - -
01:00 12,2 8,8 1,6 SE 12,9 1021,9 80 - -
01:05 12,3 8,9 4,8 SE 11,3 1021,9 80 - -
01:10 12,3 8,9   calma 8,0 1021,9 80 - -
01:15 12,3 8,9 1,6 Oriente 11,3 1021,9 80 - -
01:20 12,3 8,9 4,8 Oriente 9,7 1021,9 80 - -
01:25 12,3 8,9 3,2 SE 11,3 1021,9 80 - -
01:30 12,2 8,8 8,0 SE 11,3 1021,9 80 - -
01:35 12,2 8,8 1,6 SE 11,3 1021,6 80 - -
01:40 12,2 9,1   calma 12,9 1021,6 81 - -
01:45 12,2 9,1 8,0 SE 8,0 1021,6 81 - -
01:50 12,2 9,1 3,2 SE 8,0 1021,6 81 - -
01:55 12,2 9,1 4,8 SE 6,4 1021,6 81 - -
02:00 12,2 9,1 4,8 SE 11,3 1021,6 81 - -
02:05 12,2 9,1 3,2 SE 12,9 1021,6 81 - -
02:10 12,2 9,1 4,8 SE 8,0 1021,6 81 - -
02:15 12,2 9,1 1,6 SE 8,0 1021,6 81 - -
02:20 12,3 9,1 4,8 SE 11,3 1021,6 81 - -
02:25 12,2 9,1 3,2 SE 8,0 1021,6 81 - -
02:30 12,2 9,1 3,2 SE 6,4 1021,9 81 - -
02:35 12,2 9,2 1,6 SE 12,9 1021,9 82 - -
02:40 12,2 9,2 3,2 SE 11,3 1021,9 82 - -
02:45 12,2 9,2 1,6 SE 11,3 1021,9 82 - -
02:50 12,2 9,2 3,2 SE 11,3 1021,9 82 - -
02:55 12,2 9,2 8,0 SE 11,3 1021,9 82 - -
03:00 12,2 9,2 1,6 SE 8,0 1021,6 82 - -
03:05 12,2 9,2 3,2 SE 11,3 1021,9 82 - -
03:10 12,2 9,2 6,4 SE 9,7 1021,6 82 - -
03:15 12,1 9,1 3,2 SE 11,3 1021,6 82 - -
03:20 12,1 9,3 4,8 SE 11,3 1021,6 83 - -
03:25 12,1 9,2 3,2 SE 12,9 1021,6 83 - -
03:30 12,1 9,3 3,2 SE 14,5 1021,6 83 - -
03:35 12,2 9,3 8,0 SE 16,1 1021,9 83 - -
03:40 12,1 9,3 8,0 SE 12,9 1021,6 83 - -
03:45 12,1 9,3 8,0 SE 9,7 1021,6 83 - -
03:50 12,1 9,2   calma 12,9 1021,6 83 - -
03:55 12,1 9,4 4,8 S 11,3 1021,6 84 - -
04:00 12,1 9,4 3,2 SE 11,3 1021,6 84 - -
04:05 12,1 9,4   calma 8,0 1021,6 84 - -
04:10 12,0 9,3 8,0 SE 9,7 1021,6 84 - -
04:15 12,0 9,3 8,0 SE 11,3 1021,6 84 - -
04:20 12,1 9,4   calma 11,3 1021,6 84 - -
04:25 12,1 9,4 6,4 SE 8,0 1021,6 84 - -
04:30 12,1 9,6 8,0 SE 16,1 1021,6 85 - -
04:35 12,1 9,6 1,6 SE 11,3 1021,6 85 - -
04:40 12,1 9,6 3,2 SE 11,3 1021,6 85 - -
04:45 12,1 9,6 3,2 SE 12,9 1021,2 85 - -
04:50 12,1 9,6   calma 8,0 1021,6 85 - -
04:55 12,2 9,7 1,6 SE 6,4 1021,6 85 - -
05:00 12,2 9,7 3,2 SE 4,8 1021,6 85 - -
05:05 12,2 9,7 6,4 SE 9,7 1021,6 85 - -
05:10 12,2 9,9 3,2 SE 12,9 1021,6 86 - -
05:15 12,3 10,0 8,0 SE 6,4 1021,6 86 - -
05:20 12,3 9,8 3,2 SE 9,7 1021,6 85 - -
05:25 12,3 9,8 4,8 SE 12,9 1021,6 85 - -
05:30 12,3 10,1   calma 6,4 1021,6 86 - -
05:35 12,3 9,8   calma 6,4 1021,6 85 - -
05:40 12,3 10,1 3,2 SE 6,4 1021,6 86 - -
05:45 12,3 10,1 6,4 SE 12,9 1021,6 86 - -
05:50 12,3 10,0 3,2 SE 11,3 1021,6 86 - -
05:55 12,3 10,0 11,3 SE 11,3 1021,6 86 - -
06:00 12,3 10,0 6,4 SE 11,3 1021,6 86 - -
06:05 12,3 9,8 1,6 SE 9,7 1021,6 85 - -
06:10 12,3 10,0 8,0 SE 11,3 1021,6 86 - -
06:15 12,3 10,0 8,0 SE 14,5 1021,6 86 - -
06:20 12,3 9,8 6,4 S 12,9 1021,6 85 - -
06:25 12,2 9,7 4,8 S 6,4 1021,6 85 - -
06:30 12,2 9,7 3,2 S 12,9 1021,6 85 - -
06:35 12,2 9,7 3,2 SE 6,4 1021,6 85 - -
06:40 12,2 9,7 4,8 SE 9,7 1021,6 85 - -
06:45 12,2 9,7 9,7 SE 12,9 1021,6 85 - -
06:50 12,2 9,7 4,8 SE 9,7 1021,6 85 - -
06:55 12,2 9,7   calma 4,8 1021,6 85 - -
07:00 12,1 9,6   calma 1,6 1021,9 85 - -
07:05 12,1 9,6 3,2 SE 1,6 1021,9 85 - -
07:10 12,1 9,6 3,2 SE 6,4 1021,9 85 - -
07:15 12,1 9,6 6,4 SE 9,7 1021,9 85 - -
07:20 12,1 9,6 4,8 SE 11,3 1021,9 85 - -
07:25 12,1 9,6 3,2 SE 9,7 1021,9 85 - -
07:30 12,1 9,6 4,8 SE 9,7 1021,9 85 - -
07:35 12,1 9,4 3,2 SE 6,4 1021,9 84 - -
07:40 12,2 9,5 1,6 SE 4,8 1021,9 84 - -
07:45 12,2 9,5 3,2 Oriente 9,7 1021,9 84 - -
07:50 12,3 9,6 1,6 SE 11,3 1022,2 84 - -
07:55 12,4 9,6 1,6 SE 8,0 1022,2 83 - -
08:00 12,5 9,7 1,6 SE 6,4 1022,2 83 - -
08:05 12,6 9,7   calma 1,6 1022,2 83 - -
08:10 12,7 9,7 1,6 SE 6,4 1022,2 82 - -
08:15 12,7 9,5 8,0 SE 12,9 1022,2 81 - -
08:20 12,8 9,6 3,2 SE 12,9 1022,2 81 - -
08:25 12,9 9,7 4,8 SE 8,0 1022,2 81 - -
08:30 13,1 9,7 6,4 SE 8,0 1022,2 80 - -
08:35 13,2 9,6 4,8 SE 8,0 1022,2 79 - 176
08:40 13,4 9,8   calma 6,4 1022,2 79 - 188
08:45 13,7 9,9   calma 3,2 1022,6 78 - 195
08:50 14,0 10,0 1,6 S 3,2 1022,6 77 - 218
08:55 14,3 10,1   calma 3,2 1022,6 76 - 230
09:00 14,6 10,2   calma 6,4 1022,6 75 - 243
09:05 14,8 10,2   calma 6,4 1022,6 74 - 253
09:10 15,0 10,4   calma 4,8 1022,6 74 - 264
09:15 15,3 10,2 3,2 SE 8,0 1022,6 72 - 274
09:20 15,4 10,3   calma 6,4 1022,6 72 - 287
09:25 15,6 10,5   calma 3,2 1022,6 72 - 297
09:30 15,8 10,8   calma 3,2 1022,6 72 - 306
09:35 16,2 10,7   calma 3,2 1022,6 70 - 315
09:40 16,5 11,0 3,2 SE 3,2 1022,6 70 - 325
09:45 16,7 10,7   calma 3,2 1022,6 68 - 329
09:50 16,9 10,9   calma   1022,6 68 - 343
09:55 17,2 11,0   calma   1022,6 67 - 350
10:00 17,6 11,1   calma   1022,6 66 - 357
10:05 17,8 10,8   calma   1022,6 64 - 367
10:10 17,8 10,9   calma   1022,6 64 - 373
10:15 17,8 11,1   calma 1,6 1022,6 65 - 380
10:20 18,0 11,3 1,6 NE 4,8 1022,6 65 - 385
10:25 18,0 11,3   calma 3,2 1022,6 65 - 392
10:30 18,1 11,3   calma 4,8 1022,6 65 - 401
10:35 17,9 11,2   calma   1022,2 65 - 404
10:40 18,0 11,3   calma 4,8 1022,6 65 - 410
10:45 17,9 11,2 4,8 NE 6,4 1022,6 65 - 415
10:50 17,9 11,2 4,8 NE 4,8 1022,2 65 - 418
10:55 17,9 11,2 1,6 NE 4,8 1022,2 65 - 424
11:00 17,9 11,2   calma 3,2 1022,2 65 - 425
11:05 18,1 11,3   calma 4,8 1022,2 65 - 425
11:10 18,2 11,2   calma 3,2 1022,2 64 - 425
11:15 18,4 11,4 3,2 NO 4,8 1021,9 64 - 438
11:20 18,4 11,2 1,6 NE 4,8 1021,9 63 - 424
11:25 18,4 11,2   calma 3,2 1021,9 63 - 434
11:30 18,5 11,6 3,2 NO 6,4 1021,9 64 - 445
11:35 18,6 11,6 4,8 West 8,0 1021,9 64 - 438
11:40 18,6 11,3   calma 8,0 1021,9 63 - 445
11:45 18,7 11,4 1,6 NO 6,4 1021,9 63 - 445
11:50 18,7 11,2 6,4 W 9,7 1021,9 62 - 452
11:55 18,6 11,1 4,8 W 8,0 1021,6 62 - 452
12:00 18,6 10,9   calma 6,4 1021,6 61 - 450
12:05 18,7 10,4   calma 8,0 1021,6 59 - 410
12:10 18,7 10,5 4,8 W 6,4 1021,6 59 - 381
12:15 18,7 10,5 4,8 West 9,7 1021,6 59 - 436
12:20 18,7 10,8 6,4 NNW 8,0 1021,6 60 - 443
12:25 18,8 10,6 4,8 West 8,0 1021,6 59 - 441
12:30 18,8 10,6 3,2 W 11,3 1021,6 59 - 410
12:35 18,8 10,3 8,0 West 12,9 1021,6 58 - 401
12:40 18,7 10,3   calma 8,0 1021,6 58 - 408
12:45 18,8 10,3 3,2 NO 8,0 1021,6 58 - 360
12:50 18,8 9,8 1,6 NO 8,0 1021,2 56 - 329
12:55 18,8 9,5   calma 9,7 1021,2 55 - 355
13:00 18,8 10,1 3,2 West 9,7 1021,2 57 - 403
13:05 18,7 10,0 3,2 W 9,7 1021,2 57 - 399
13:10 18,6 10,4   calma 11,3 1021,2 59 - 388
13:15 18,6 10,3   calma 8,0 1021,2 59 - 330
13:20 18,6 10,8 4,8 W 8,0 1020,9 61 - 294
13:25 18,4 10,5   calma 9,7 1020,9 60 - 318
13:30 18,4 10,9 4,8 W 9,7 1020,9 62 - 287
13:35 18,4 11,2 8,0 W 8,0 1020,9 63 - 364
13:40 18,4 11,2 6,4 W 9,7 1020,9 63 - 336
13:45 18,4 11,7 8,0 W 8,0 1020,9 65 - 369
13:50 18,4 11,9 1,6 W 8,0 1020,9 66 - 366
13:55 18,6 11,8 4,8 W 9,7 1020,9 65 - 360
14:00 18,6 11,8 1,6 W 9,7 1020,9 65 - 352
14:05 18,5 11,6   calma 9,7 1020,9 64 - 339
14:10 18,6 11,3 8,0 W 9,7 1020,9 63 - 322
14:15 18,7 11,3 4,8 W 8,0 1020,9 62 - 297
14:20 18,7 10,8   calma 6,4 1020,9 60 - 279
14:25 19,0 11,3   calma 4,8 1020,9 61 - 258
14:30 19,2 11,2 3,2 W 6,4 1020,9 60 - 260
14:35 19,2 11,2 1,6 W 4,8 1020,9 60 - 246
Quotidiano Riepilogo per Domenica 08 Dicembre 2019
Tempo Temp. ( °C ) Dew pt. ( °C ) Vento ( km/h ) da Raffica ( km/h ) Pressione ( hPa ) Humid.( % ) Rainrate ( cm ) solare ( W/m2 )
Max19,2 11,9 12,9 SE ( 271/572 ) 16,1 1022,6 86 - 452
Media14,5 10,0 3,2 SE #58/176 8,4 1021,8 75 - 356 #73/176
Min12,0 8,6 -   0,0 1020,9 55 -  
Quotidiano Tabular details for Domenica 08 Dicembre 2019
Tempo Temp. ( °C ) Dew pt. ( °C ) Vento ( km/h ) da Raffica ( km/h ) Pressione ( hPa ) Humid.( % ) Rainrate ( cm ) solare ( W/m2 )
00:00 12,5 8,6 6,4 SE 9,7 1022,2 77 - -
00:05 12,4 8,7 4,8 SE 16,1 1022,2 78 - -
00:10 12,4 8,6 1,6 SE 11,3 1022,2 78 - -
00:15 12,4 8,6 6,4 SE 12,9 1022,2 78 - -
00:20 12,4 8,6   calma 12,9 1022,2 78 - -
00:25 12,3 8,6 6,4 SE 4,8 1022,2 78 - -
00:30 12,3 8,6 6,4 SE 9,7 1022,2 78 - -
00:35 12,3 8,8 6,4 SE 12,9 1022,2 79 - -
00:40 12,3 8,8 12,9 SE 12,9 1022,2 79 - -
00:45 12,3 8,7 3,2 SE 11,3 1022,2 79 - -
00:50 12,3 8,7   calma 8,0 1021,9 79 - -
00:55 12,2 8,8 6,4 SE 8,0 1021,9 80 - -
01:00 12,2 8,8 1,6 SE 12,9 1021,9 80 - -
01:05 12,3 8,9 4,8 SE 11,3 1021,9 80 - -
01:10 12,3 8,9   calma 8,0 1021,9 80 - -
01:15 12,3 8,9 1,6 Oriente 11,3 1021,9 80 - -
01:20 12,3 8,9 4,8 Oriente 9,7 1021,9 80 - -
01:25 12,3 8,9 3,2 SE 11,3 1021,9 80 - -
01:30 12,2 8,8 8,0 SE 11,3 1021,9 80 - -
01:35 12,2 8,8 1,6 SE 11,3 1021,6 80 - -
01:40 12,2 9,1   calma 12,9 1021,6 81 - -
01:45 12,2 9,1 8,0 SE 8,0 1021,6 81 - -
01:50 12,2 9,1 3,2 SE 8,0 1021,6 81 - -
01:55 12,2 9,1 4,8 SE 6,4 1021,6 81 - -
02:00 12,2 9,1 4,8 SE 11,3 1021,6 81 - -
02:05 12,2 9,1 3,2 SE 12,9 1021,6 81 - -
02:10 12,2 9,1 4,8 SE 8,0 1021,6 81 - -
02:15 12,2 9,1 1,6 SE 8,0 1021,6 81 - -
02:20 12,3 9,1 4,8 SE 11,3 1021,6 81 - -
02:25 12,2 9,1 3,2 SE 8,0 1021,6 81 - -
02:30 12,2 9,1 3,2 SE 6,4 1021,9 81 - -
02:35 12,2 9,2 1,6 SE 12,9 1021,9 82 - -
02:40 12,2 9,2 3,2 SE 11,3 1021,9 82 - -
02:45 12,2 9,2 1,6 SE 11,3 1021,9 82 - -
02:50 12,2 9,2 3,2 SE 11,3 1021,9 82 - -
02:55 12,2 9,2 8,0 SE 11,3 1021,9 82 - -
03:00 12,2 9,2 1,6 SE 8,0 1021,6 82 - -
03:05 12,2 9,2 3,2 SE 11,3 1021,9 82 - -
03:10 12,2 9,2 6,4 SE 9,7 1021,6 82 - -
03:15 12,1 9,1 3,2 SE 11,3 1021,6 82 - -
03:20 12,1 9,3 4,8 SE 11,3 1021,6 83 - -
03:25 12,1 9,2 3,2 SE 12,9 1021,6 83 - -
03:30 12,1 9,3 3,2 SE 14,5 1021,6 83 - -
03:35 12,2 9,3 8,0 SE 16,1 1021,9 83 - -
03:40 12,1 9,3 8,0 SE 12,9 1021,6 83 - -
03:45 12,1 9,3 8,0 SE 9,7 1021,6 83 - -
03:50 12,1 9,2   calma 12,9 1021,6 83 - -
03:55 12,1 9,4 4,8 S 11,3 1021,6 84 - -
04:00 12,1 9,4 3,2 SE 11,3 1021,6 84 - -
04:05 12,1 9,4   calma 8,0 1021,6 84 - -
04:10 12,0 9,3 8,0 SE 9,7 1021,6 84 - -
04:15 12,0 9,3 8,0 SE 11,3 1021,6 84 - -
04:20 12,1 9,4   calma 11,3 1021,6 84 - -
04:25 12,1 9,4 6,4 SE 8,0 1021,6 84 - -
04:30 12,1 9,6 8,0 SE 16,1 1021,6 85 - -
04:35 12,1 9,6 1,6 SE 11,3 1021,6 85 - -
04:40 12,1 9,6 3,2 SE 11,3 1021,6 85 - -
04:45 12,1 9,6 3,2 SE 12,9 1021,2 85 - -
04:50 12,1 9,6   calma 8,0 1021,6 85 - -
04:55 12,2 9,7 1,6 SE 6,4 1021,6 85 - -
05:00 12,2 9,7 3,2 SE 4,8 1021,6 85 - -
05:05 12,2 9,7 6,4 SE 9,7 1021,6 85 - -
05:10 12,2 9,9 3,2 SE 12,9 1021,6 86 - -
05:15 12,3 10,0 8,0 SE 6,4 1021,6 86 - -
05:20 12,3 9,8 3,2 SE 9,7 1021,6 85 - -
05:25 12,3 9,8 4,8 SE 12,9 1021,6 85 - -
05:30 12,3 10,1   calma 6,4 1021,6 86 - -
05:35 12,3 9,8   calma 6,4 1021,6 85 - -
05:40 12,3 10,1 3,2 SE 6,4 1021,6 86 - -
05:45 12,3 10,1 6,4 SE 12,9 1021,6 86 - -
05:50 12,3 10,0 3,2 SE 11,3 1021,6 86 - -
05:55 12,3 10,0 11,3 SE 11,3 1021,6 86 - -
06:00 12,3 10,0 6,4 SE 11,3 1021,6 86 - -
06:05 12,3 9,8 1,6 SE 9,7 1021,6 85 - -
06:10 12,3 10,0 8,0 SE 11,3 1021,6 86 - -
06:15 12,3 10,0 8,0 SE 14,5 1021,6 86 - -
06:20 12,3 9,8 6,4 S 12,9 1021,6 85 - -
06:25 12,2 9,7 4,8 S 6,4 1021,6 85 - -
06:30 12,2 9,7 3,2 S 12,9 1021,6 85 - -
06:35 12,2 9,7 3,2 SE 6,4 1021,6 85 - -
06:40 12,2 9,7 4,8 SE 9,7 1021,6 85 - -
06:45 12,2 9,7 9,7 SE 12,9 1021,6 85 - -
06:50 12,2 9,7 4,8 SE 9,7 1021,6 85 - -
06:55 12,2 9,7   calma 4,8 1021,6 85 - -
07:00 12,1 9,6   calma 1,6 1021,9 85 - -
07:05 12,1 9,6 3,2 SE 1,6 1021,9 85 - -
07:10 12,1 9,6 3,2 SE 6,4 1021,9 85 - -
07:15 12,1 9,6 6,4 SE 9,7 1021,9 85 - -
07:20 12,1 9,6 4,8 SE 11,3 1021,9 85 - -
07:25 12,1 9,6 3,2 SE 9,7 1021,9 85 - -
07:30 12,1 9,6 4,8 SE 9,7 1021,9 85 - -
07:35 12,1 9,4 3,2 SE 6,4 1021,9 84 - -
07:40 12,2 9,5 1,6 SE 4,8 1021,9 84 - -
07:45 12,2 9,5 3,2 Oriente 9,7 1021,9 84 - -
07:50 12,3 9,6 1,6 SE 11,3 1022,2 84 - -
07:55 12,4 9,6 1,6 SE 8,0 1022,2 83 - -
08:00 12,5 9,7 1,6 SE 6,4 1022,2 83 - -
08:05 12,6 9,7   calma 1,6 1022,2 83 - -
08:10 12,7 9,7 1,6 SE 6,4 1022,2 82 - -
08:15 12,7 9,5 8,0 SE 12,9 1022,2 81 - -
08:20 12,8 9,6 3,2 SE 12,9 1022,2 81 - -
08:25 12,9 9,7 4,8 SE 8,0 1022,2 81 - -
08:30 13,1 9,7 6,4 SE 8,0 1022,2 80 - -
08:35 13,2 9,6 4,8 SE 8,0 1022,2 79 - 176
08:40 13,4 9,8   calma 6,4 1022,2 79 - 188
08:45 13,7 9,9   calma 3,2 1022,6 78 - 195
08:50 14,0 10,0 1,6 S 3,2 1022,6 77 - 218
08:55 14,3 10,1   calma 3,2 1022,6 76 - 230
09:00 14,6 10,2   calma 6,4 1022,6 75 - 243
09:05 14,8 10,2   calma 6,4 1022,6 74 - 253
09:10 15,0 10,4   calma 4,8 1022,6 74 - 264
09:15 15,3 10,2 3,2 SE 8,0 1022,6 72 - 274
09:20 15,4 10,3   calma 6,4 1022,6 72 - 287
09:25 15,6 10,5   calma 3,2 1022,6 72 - 297
09:30 15,8 10,8   calma 3,2 1022,6 72 - 306
09:35 16,2 10,7   calma 3,2 1022,6 70 - 315
09:40 16,5 11,0 3,2 SE 3,2 1022,6 70 - 325
09:45 16,7 10,7   calma 3,2 1022,6 68 - 329
09:50 16,9 10,9   calma   1022,6 68 - 343
09:55 17,2 11,0   calma   1022,6 67 - 350
10:00 17,6 11,1   calma   1022,6 66 - 357
10:05 17,8 10,8   calma   1022,6 64 - 367
10:10 17,8 10,9   calma   1022,6 64 - 373
10:15 17,8 11,1   calma 1,6 1022,6 65 - 380
10:20 18,0 11,3 1,6 NE 4,8 1022,6 65 - 385
10:25 18,0 11,3   calma 3,2 1022,6 65 - 392
10:30 18,1 11,3   calma 4,8 1022,6 65 - 401
10:35 17,9 11,2   calma   1022,2 65 - 404
10:40 18,0 11,3   calma 4,8 1022,6 65 - 410
10:45 17,9 11,2 4,8 NE 6,4 1022,6 65 - 415
10:50 17,9 11,2 4,8 NE 4,8 1022,2 65 - 418
10:55 17,9 11,2 1,6 NE 4,8 1022,2 65 - 424
11:00 17,9 11,2   calma 3,2 1022,2 65 - 425
11:05 18,1 11,3   calma 4,8 1022,2 65 - 425
11:10 18,2 11,2   calma 3,2 1022,2 64 - 425
11:15 18,4 11,4 3,2 NO 4,8 1021,9 64 - 438
11:20 18,4 11,2 1,6 NE 4,8 1021,9 63 - 424
11:25 18,4 11,2   calma 3,2 1021,9 63 - 434
11:30 18,5 11,6 3,2 NO 6,4 1021,9 64 - 445
11:35 18,6 11,6 4,8 West 8,0 1021,9 64 - 438
11:40 18,6 11,3   calma 8,0 1021,9 63 - 445
11:45 18,7 11,4 1,6 NO 6,4 1021,9 63 - 445
11:50 18,7 11,2 6,4 W 9,7 1021,9 62 - 452
11:55 18,6 11,1 4,8 W 8,0 1021,6 62 - 452
12:00 18,6 10,9   calma 6,4 1021,6 61 - 450
12:05 18,7 10,4   calma 8,0 1021,6 59 - 410
12:10 18,7 10,5 4,8 W 6,4 1021,6 59 - 381
12:15 18,7 10,5 4,8 West 9,7 1021,6 59 - 436
12:20 18,7 10,8 6,4 NNW 8,0 1021,6 60 - 443
12:25 18,8 10,6 4,8 West 8,0 1021,6 59 - 441
12:30 18,8 10,6 3,2 W 11,3 1021,6 59 - 410
12:35 18,8 10,3 8,0 West 12,9 1021,6 58 - 401
12:40 18,7 10,3   calma 8,0 1021,6 58 - 408
12:45 18,8 10,3 3,2 NO 8,0 1021,6 58 - 360
12:50 18,8 9,8 1,6 NO 8,0 1021,2 56 - 329
12:55 18,8 9,5   calma 9,7 1021,2 55 - 355
13:00 18,8 10,1 3,2 West 9,7 1021,2 57 - 403
13:05 18,7 10,0 3,2 W 9,7 1021,2 57 - 399
13:10 18,6 10,4   calma 11,3 1021,2 59 - 388
13:15 18,6 10,3   calma 8,0 1021,2 59 - 330
13:20 18,6 10,8 4,8 W 8,0 1020,9 61 - 294
13:25 18,4 10,5   calma 9,7 1020,9 60 - 318
13:30 18,4 10,9 4,8 W 9,7 1020,9 62 - 287
13:35 18,4 11,2 8,0 W 8,0 1020,9 63 - 364
13:40 18,4 11,2 6,4 W 9,7 1020,9 63 - 336
13:45 18,4 11,7 8,0 W 8,0 1020,9 65 - 369
13:50 18,4 11,9 1,6 W 8,0 1020,9 66 - 366
13:55 18,6 11,8 4,8 W 9,7 1020,9 65 - 360
14:00 18,6 11,8 1,6 W 9,7 1020,9 65 - 352
14:05 18,5 11,6   calma 9,7 1020,9 64 - 339
14:10 18,6 11,3 8,0 W 9,7 1020,9 63 - 322
14:15 18,7 11,3 4,8 W 8,0 1020,9 62 - 297
14:20 18,7 10,8   calma 6,4 1020,9 60 - 279
14:25 19,0 11,3   calma 4,8 1020,9 61 - 258
14:30 19,2 11,2 3,2 W 6,4 1020,9 60 - 260
14:35 19,2 11,2 1,6 W 4,8 1020,9 60 - 246

Download your copy of this data-set  here

Our weather-data as stored at Weather Underground. Script sviluppato da Jim McMurry. Adattato per il modello da Leuven-Template.eu

Potete trovare le nostre info meteo anche a:

European Weather Network

Weather Underground

AWEKAS

Citizen Weather Observer Program (CWOP)

HAMweather, WeatherForYou, PWS Weather

Attrezzature usate:

Stazione meteo
Davis VP2

Programma gestore dati meteo
WVIEW

Server per i dati meteo
WDS5 Ecoblack

Davis VP2

WVIEW

WDS5 Ecoblack